Location: Unspecified
(0.0000°N, 0.0000°E)
Time: 18:33:11
(UTC+00:00)

Vanguard 1 - Pass Details

Date: 19 April 2026
Orbit: 654 x 3817 km, 34.2° (Epoch: 18 May)

Event Time Altitude Azimuth Distance (km) Brightness Sun altitude
Rises 23:19:34 0° 284° (WNW) 7,372 14.7 -74.9°
Reaches altitude 10° 23:26:29 10° 298° (WNW) 6,682 14.4 -76.0°
Maximum altitude 23:42:35 23° 343° (NNW) 5,832 13.9 -77.8°
Drops below altitude 10° 23:57:59 10° 29° (NNE) 6,303 14.2 -78.5°
Sets 00:04:20 0° 43° (NE) 6,872 14.5 -78.5°
